Year,Month,Day,Hour,Minute,Value (Times are PST for temperature in C)
2013,05,22,11,26,12.70
2013,05,22,11,27,12.70
2013,05,22,11,28,12.70
2013,05,22,11,29,12.80
2013,05,22,11,30,12.80
2013,05,22,11,31,12.90
2013,05,22,11,32,12.90
2013,05,22,11,33,13.00
2013,05,22,11,34,13.10
2013,05,22,11,35,13.10
2013,05,22,11,36,13.30
2013,05,22,11,37,13.30
2013,05,22,11,38,13.40
2013,05,22,11,39,13.50
2013,05,22,11,40,13.60
2013,05,22,11,41,13.60
2013,05,22,11,42,13.70
2013,05,22,11,43,13.70
2013,05,22,11,44,13.80
2013,05,22,11,45,13.80
2013,05,22,11,46,13.80
2013,05,22,11,47,13.80
2013,05,22,11,48,13.80
2013,05,22,11,49,13.80
2013,05,22,11,50,13.80
2013,05,22,11,51,13.80
2013,05,22,11,52,13.80
2013,05,22,11,53,13.90
2013,05,22,11,54,13.90
2013,05,22,11,55,13.90
2013,05,22,11,56,13.90
2013,05,22,11,57,13.90
2013,05,22,11,58,13.90
2013,05,22,11,59,14.00
2013,05,22,12,00,14.10
2013,05,22,12,01,14.10
2013,05,22,12,02,14.20
2013,05,22,12,03,14.20
2013,05,22,12,04,14.20
2013,05,22,12,05,14.20
2013,05,22,12,06,14.10
2013,05,22,12,07,14.10
2013,05,22,12,08,14.00
2013,05,22,12,09,13.90
2013,05,22,12,10,13.80
2013,05,22,12,11,13.80
2013,05,22,12,12,13.70
2013,05,22,12,13,13.60
2013,05,22,12,14,13.60
2013,05,22,12,15,13.50
2013,05,22,12,16,13.50
2013,05,22,12,17,13.50
2013,05,22,12,18,13.50
2013,05,22,12,19,13.60
2013,05,22,12,20,13.60
2013,05,22,12,21,13.60
2013,05,22,12,22,13.60
2013,05,22,12,23,13.60
2013,05,22,12,24,13.60
2013,05,22,12,25,13.60
2013,05,22,12,26,13.60
2013,05,22,12,27,13.60
2013,05,22,12,28,13.70
2013,05,22,12,29,13.70
2013,05,22,12,30,13.70
2013,05,22,12,31,13.70
2013,05,22,12,32,13.70
2013,05,22,12,33,13.70
2013,05,22,12,34,13.60
2013,05,22,12,35,13.60
2013,05,22,12,36,13.60
2013,05,22,12,37,13.50
2013,05,22,12,38,13.50
2013,05,22,12,39,13.50
2013,05,22,12,40,13.50
2013,05,22,12,41,13.50
2013,05,22,12,42,13.50
2013,05,22,12,43,13.40
2013,05,22,12,44,13.50
2013,05,22,12,45,13.50
2013,05,22,12,46,13.50
2013,05,22,12,47,13.40
2013,05,22,12,48,13.40
2013,05,22,12,49,13.40
2013,05,22,12,50,13.40
2013,05,22,12,51,13.40
2013,05,22,12,52,13.40
2013,05,22,12,53,13.40
2013,05,22,12,54,13.40
2013,05,22,12,55,13.40
2013,05,22,12,56,13.30
2013,05,22,12,57,13.30
2013,05,22,12,58,13.30
2013,05,22,12,59,13.30
2013,05,22,13,00,13.30
2013,05,22,13,01,13.40
2013,05,22,13,02,13.50
2013,05,22,13,03,13.60
2013,05,22,13,04,13.60
2013,05,22,13,05,13.60
2013,05,22,13,06,13.60
2013,05,22,13,07,13.50
2013,05,22,13,08,13.40
2013,05,22,13,09,13.40
2013,05,22,13,10,13.40
2013,05,22,13,11,13.40
2013,05,22,13,12,13.50
2013,05,22,13,13,13.50
2013,05,22,13,14,13.60
2013,05,22,13,15,13.60
2013,05,22,13,16,13.60
2013,05,22,13,17,13.60
2013,05,22,13,18,13.60
2013,05,22,13,19,13.70
2013,05,22,13,20,13.70
2013,05,22,13,21,13.70
2013,05,22,13,22,13.80
2013,05,22,13,23,13.80
2013,05,22,13,24,13.80
2013,05,22,13,25,13.80
2013,05,22,13,26,13.80
2013,05,22,13,27,13.80
2013,05,22,13,28,13.70
2013,05,22,13,29,13.70
2013,05,22,13,30,13.70
2013,05,22,13,31,13.70
2013,05,22,13,32,13.70
2013,05,22,13,33,13.70
2013,05,22,13,34,13.70
2013,05,22,13,35,13.70
2013,05,22,13,36,13.70
2013,05,22,13,37,13.80
2013,05,22,13,38,13.80
2013,05,22,13,39,13.90
2013,05,22,13,40,13.90
2013,05,22,13,41,13.90
2013,05,22,13,42,14.00
2013,05,22,13,43,14.00
2013,05,22,13,44,14.10
2013,05,22,13,45,14.10
2013,05,22,13,46,14.20
2013,05,22,13,47,14.30
2013,05,22,13,48,14.40
2013,05,22,13,49,14.40
2013,05,22,13,50,14.40
2013,05,22,13,51,14.50
2013,05,22,13,52,14.50
2013,05,22,13,53,14.50
2013,05,22,13,54,14.60
2013,05,22,13,55,14.60
2013,05,22,13,56,14.60
2013,05,22,13,57,14.60
2013,05,22,13,58,14.60
2013,05,22,13,59,14.50
2013,05,22,14,00,14.50
2013,05,22,14,01,14.40
2013,05,22,14,02,14.40
2013,05,22,14,03,14.30
2013,05,22,14,04,14.40
2013,05,22,14,05,14.40
2013,05,22,14,06,14.40
2013,05,22,14,07,14.40
2013,05,22,14,08,14.50
2013,05,22,14,09,14.50
2013,05,22,14,10,14.50
2013,05,22,14,11,14.60
2013,05,22,14,12,14.60
2013,05,22,14,13,14.70
2013,05,22,14,14,14.70
2013,05,22,14,15,14.70
2013,05,22,14,16,14.70
2013,05,22,14,17,14.70
2013,05,22,14,18,14.80
2013,05,22,14,19,14.80
2013,05,22,14,20,14.90
2013,05,22,14,21,15.00
2013,05,22,14,22,15.10
2013,05,22,14,23,15.20
2013,05,22,14,24,15.20
2013,05,22,14,25,15.20
2013,05,22,14,26,15.30
2013,05,22,14,27,15.30
2013,05,22,14,28,15.20
2013,05,22,14,29,15.10
2013,05,22,14,30,15.10
2013,05,22,14,31,15.10
2013,05,22,14,32,15.10
2013,05,22,14,33,15.10
2013,05,22,14,34,15.10
2013,05,22,14,35,15.00
2013,05,22,14,36,15.00
2013,05,22,14,37,14.90
2013,05,22,14,38,14.90
2013,05,22,14,39,14.90
2013,05,22,14,40,14.90
2013,05,22,14,41,14.90
2013,05,22,14,42,14.90
2013,05,22,14,43,14.90
2013,05,22,14,44,14.90
2013,05,22,14,45,14.90
2013,05,22,14,46,14.90
2013,05,22,14,47,14.90
2013,05,22,14,48,14.90
2013,05,22,14,49,14.90
2013,05,22,14,50,14.90
2013,05,22,14,51,14.90
2013,05,22,14,52,14.80
2013,05,22,14,53,14.70
2013,05,22,14,54,14.60
2013,05,22,14,55,14.50
2013,05,22,14,56,14.40
2013,05,22,14,57,14.40
2013,05,22,14,58,14.30
2013,05,22,14,59,14.30
2013,05,22,15,00,14.20
2013,05,22,15,01,14.20
2013,05,22,15,02,14.30
2013,05,22,15,03,14.30
2013,05,22,15,04,14.30
2013,05,22,15,05,14.30
2013,05,22,15,06,14.30
2013,05,22,15,07,14.30
2013,05,22,15,08,14.30
2013,05,22,15,09,14.30
2013,05,22,15,10,14.30
2013,05,22,15,11,14.30
2013,05,22,15,12,14.30
2013,05,22,15,13,14.30
2013,05,22,15,14,14.30
2013,05,22,15,15,14.30
2013,05,22,15,16,14.30
2013,05,22,15,17,14.30
2013,05,22,15,18,14.30
2013,05,22,15,19,14.30
2013,05,22,15,20,14.30
2013,05,22,15,21,14.30
2013,05,22,15,22,14.30
2013,05,22,15,23,14.30
2013,05,22,15,24,14.30
2013,05,22,15,25,14.30
2013,05,22,15,26,14.20
2013,05,22,15,27,14.20
2013,05,22,15,28,14.10
2013,05,22,15,29,14.00
2013,05,22,15,30,13.90
2013,05,22,15,31,13.90
2013,05,22,15,32,13.80
2013,05,22,15,33,13.80
2013,05,22,15,34,13.80
2013,05,22,15,35,13.80
2013,05,22,15,36,13.80
2013,05,22,15,37,13.80
2013,05,22,15,38,13.80
2013,05,22,15,39,13.80
2013,05,22,15,40,13.80
2013,05,22,15,41,13.80
2013,05,22,15,42,13.80
2013,05,22,15,43,13.80
2013,05,22,15,44,13.70
2013,05,22,15,45,13.60
2013,05,22,15,46,13.60
2013,05,22,15,47,13.60
2013,05,22,15,48,13.60
2013,05,22,15,49,13.60
2013,05,22,15,50,13.60
2013,05,22,15,51,13.60
2013,05,22,15,52,13.60
2013,05,22,15,53,13.50
2013,05,22,15,54,13.60
2013,05,22,15,55,13.50
2013,05,22,15,56,13.60
2013,05,22,15,57,13.60
2013,05,22,15,58,13.60
2013,05,22,15,59,13.60
2013,05,22,16,00,13.60
2013,05,22,16,01,13.60
2013,05,22,16,02,13.60
2013,05,22,16,03,13.60
2013,05,22,16,04,13.60
2013,05,22,16,05,13.60
2013,05,22,16,06,13.60
2013,05,22,16,07,13.60
2013,05,22,16,08,13.60
2013,05,22,16,09,13.60
2013,05,22,16,10,13.60
2013,05,22,16,11,13.50
2013,05,22,16,12,13.50
2013,05,22,16,13,13.50
2013,05,22,16,14,13.50
2013,05,22,16,15,13.50
2013,05,22,16,16,13.50
2013,05,22,16,17,13.40
2013,05,22,16,18,13.40
2013,05,22,16,19,13.40
2013,05,22,16,20,13.40
2013,05,22,16,21,13.40
2013,05,22,16,22,13.50
2013,05,22,16,23,13.50
2013,05,22,16,24,13.60
2013,05,22,16,25,13.70
2013,05,22,16,26,13.70
2013,05,22,16,27,13.80
2013,05,22,16,28,13.80
2013,05,22,16,29,13.90
2013,05,22,16,30,13.90
2013,05,22,16,31,13.90
2013,05,22,16,32,13.90
2013,05,22,16,33,14.00
2013,05,22,16,34,14.00
2013,05,22,16,35,14.00
2013,05,22,16,36,14.10
2013,05,22,16,37,14.10
2013,05,22,16,38,14.10
2013,05,22,16,39,14.10
2013,05,22,16,40,14.10
2013,05,22,16,41,14.00
2013,05,22,16,42,14.00
2013,05,22,16,43,13.90
2013,05,22,16,44,13.90
2013,05,22,16,45,13.80
2013,05,22,16,46,13.80
2013,05,22,16,47,13.70
2013,05,22,16,48,13.70
2013,05,22,16,49,13.70
2013,05,22,16,50,13.60
2013,05,22,16,51,13.60
2013,05,22,16,52,13.60
2013,05,22,16,53,13.60
2013,05,22,16,54,13.60
2013,05,22,16,55,13.60
2013,05,22,16,56,13.60
2013,05,22,16,57,13.60
2013,05,22,16,58,13.50
2013,05,22,16,59,13.40
2013,05,22,17,00,13.30
2013,05,22,17,01,13.30
2013,05,22,17,02,13.20
2013,05,22,17,03,13.20
2013,05,22,17,04,13.10
2013,05,22,17,05,13.10
2013,05,22,17,06,13.10
2013,05,22,17,07,13.10
2013,05,22,17,08,13.10
2013,05,22,17,09,13.10
2013,05,22,17,10,13.10
2013,05,22,17,11,13.10
2013,05,22,17,12,13.10
2013,05,22,17,13,13.10
2013,05,22,17,14,13.10
2013,05,22,17,15,13.10
2013,05,22,17,16,13.10
2013,05,22,17,17,13.10
2013,05,22,17,18,13.10
2013,05,22,17,19,13.20
2013,05,22,17,20,13.20
2013,05,22,17,21,13.20
2013,05,22,17,22,13.20
2013,05,22,17,23,13.20
2013,05,22,17,24,13.20
2013,05,22,17,25,13.20
2013,05,22,17,26,13.30
2013,05,22,17,27,13.30
2013,05,22,17,28,13.30
2013,05,22,17,29,13.30
2013,05,22,17,30,13.40
2013,05,22,17,31,13.40
2013,05,22,17,32,13.50
2013,05,22,17,33,13.60
2013,05,22,17,34,13.60
2013,05,22,17,35,13.70
2013,05,22,17,36,13.70
2013,05,22,17,37,13.80
2013,05,22,17,38,13.80
2013,05,22,17,39,13.90
2013,05,22,17,40,14.00
2013,05,22,17,41,14.10
2013,05,22,17,42,14.10
2013,05,22,17,43,14.10
2013,05,22,17,44,14.10
2013,05,22,17,45,14.20
2013,05,22,17,46,14.20
2013,05,22,17,47,14.20
2013,05,22,17,48,14.30
2013,05,22,17,49,14.40
2013,05,22,17,50,14.40
2013,05,22,17,51,14.50
2013,05,22,17,52,14.50
2013,05,22,17,53,14.60
2013,05,22,17,54,14.60
2013,05,22,17,55,14.60
2013,05,22,17,56,14.50
2013,05,22,17,57,14.50
2013,05,22,17,58,14.50
2013,05,22,17,59,14.50
2013,05,22,18,00,14.40
2013,05,22,18,01,14.40
2013,05,22,18,02,14.40
2013,05,22,18,03,14.40
2013,05,22,18,04,14.40
2013,05,22,18,05,14.30
2013,05,22,18,06,14.30
2013,05,22,18,07,14.30
2013,05,22,18,08,14.20
2013,05,22,18,09,14.20
2013,05,22,18,10,14.20
2013,05,22,18,11,14.10
2013,05,22,18,12,14.10
2013,05,22,18,13,14.00
2013,05,22,18,14,14.00
2013,05,22,18,15,14.00
2013,05,22,18,16,14.00
2013,05,22,18,17,14.00
2013,05,22,18,18,14.00
2013,05,22,18,19,14.00
2013,05,22,18,20,14.00
2013,05,22,18,21,14.00
2013,05,22,18,22,14.00
2013,05,22,18,23,13.90
2013,05,22,18,24,13.90
2013,05,22,18,25,13.90
2013,05,22,18,26,13.80
2013,05,22,18,27,13.80
2013,05,22,18,28,13.80
2013,05,22,18,29,13.80
2013,05,22,18,30,13.80
2013,05,22,18,31,13.80
2013,05,22,18,32,13.80
2013,05,22,18,33,13.80
2013,05,22,18,34,13.70
2013,05,22,18,35,13.70
2013,05,22,18,36,13.70
2013,05,22,18,37,13.70
2013,05,22,18,38,13.60
2013,05,22,18,39,13.60
2013,05,22,18,40,13.60
2013,05,22,18,41,13.60
2013,05,22,18,42,13.60
2013,05,22,18,43,13.60
2013,05,22,18,44,13.60
2013,05,22,18,45,13.60
2013,05,22,18,46,13.70
2013,05,22,18,47,13.70
2013,05,22,18,48,13.70
2013,05,22,18,49,13.70
2013,05,22,18,50,13.70
2013,05,22,18,51,13.70
2013,05,22,18,52,13.70
2013,05,22,18,53,13.60
2013,05,22,18,54,13.60
2013,05,22,18,55,13.40
2013,05,22,18,56,13.30
2013,05,22,18,57,13.20
2013,05,22,18,58,13.10
2013,05,22,18,59,13.00
2013,05,22,19,00,12.90
2013,05,22,19,01,12.90
2013,05,22,19,02,12.80
2013,05,22,19,03,12.70
2013,05,22,19,04,12.60
2013,05,22,19,05,12.50
2013,05,22,19,06,12.40
2013,05,22,19,07,12.30
2013,05,22,19,08,12.20
2013,05,22,19,09,12.20
2013,05,22,19,10,12.20
2013,05,22,19,11,12.20
2013,05,22,19,12,12.20
2013,05,22,19,13,12.20
2013,05,22,19,14,12.10
2013,05,22,19,15,12.10
2013,05,22,19,16,12.10
2013,05,22,19,17,12.00
2013,05,22,19,18,11.90
2013,05,22,19,19,11.80
2013,05,22,19,20,11.70
2013,05,22,19,21,11.70
2013,05,22,19,22,11.70
2013,05,22,19,23,11.70
2013,05,22,19,24,11.60
2013,05,22,19,25,11.60
2013,05,22,19,26,11.60
2013,05,22,19,27,11.60
2013,05,22,19,28,11.60
2013,05,22,19,29,11.60
2013,05,22,19,30,11.60
2013,05,22,19,31,11.70
2013,05,22,19,32,11.70
2013,05,22,19,33,11.70
2013,05,22,19,34,11.70
2013,05,22,19,35,11.70
2013,05,22,19,36,11.70
2013,05,22,19,37,11.70
2013,05,22,19,38,11.70
2013,05,22,19,39,11.70
2013,05,22,19,40,11.60
2013,05,22,19,41,11.60
2013,05,22,19,42,11.60
2013,05,22,19,43,11.60
2013,05,22,19,44,11.60
2013,05,22,19,45,11.60
2013,05,22,19,46,11.60
2013,05,22,19,47,11.60
2013,05,22,19,48,11.60
2013,05,22,19,49,11.60
2013,05,22,19,50,11.60
2013,05,22,19,51,11.60
2013,05,22,19,52,11.60
2013,05,22,19,53,11.60
2013,05,22,19,54,11.60
2013,05,22,19,55,11.60
2013,05,22,19,56,11.60
2013,05,22,19,57,11.60
2013,05,22,19,58,11.50
2013,05,22,19,59,11.50
2013,05,22,20,00,11.50
2013,05,22,20,01,11.50
2013,05,22,20,02,11.50
2013,05,22,20,03,11.50
2013,05,22,20,04,11.50
2013,05,22,20,05,11.50
2013,05,22,20,06,11.40
2013,05,22,20,07,11.40
2013,05,22,20,08,11.30
2013,05,22,20,09,11.30
2013,05,22,20,10,11.20
2013,05,22,20,11,11.20
2013,05,22,20,12,11.20
2013,05,22,20,13,11.10
2013,05,22,20,14,11.10
2013,05,22,20,15,11.10
2013,05,22,20,16,11.10
2013,05,22,20,17,11.00
2013,05,22,20,18,11.00
2013,05,22,20,19,11.00
2013,05,22,20,20,11.00
2013,05,22,20,21,11.00
2013,05,22,20,22,11.00
2013,05,22,20,23,11.00
2013,05,22,20,24,11.00
2013,05,22,20,25,10.90
2013,05,22,20,26,10.90
2013,05,22,20,27,10.90
2013,05,22,20,28,10.90
2013,05,22,20,29,10.90
2013,05,22,20,30,10.80
2013,05,22,20,31,10.80
2013,05,22,20,32,10.80
2013,05,22,20,33,10.80
2013,05,22,20,34,10.70
2013,05,22,20,35,10.70
2013,05,22,20,36,10.70
2013,05,22,20,37,10.70
2013,05,22,20,38,10.70
2013,05,22,20,39,10.70
2013,05,22,20,40,10.70
2013,05,22,20,41,10.60
2013,05,22,20,42,10.60
2013,05,22,20,43,10.60
2013,05,22,20,44,10.50
2013,05,22,20,45,10.50
2013,05,22,20,46,10.40
2013,05,22,20,47,10.30
2013,05,22,20,48,10.30
2013,05,22,20,49,10.30
2013,05,22,20,50,10.30
2013,05,22,20,51,10.20
2013,05,22,20,52,10.10
2013,05,22,20,53,10.10
2013,05,22,20,54,10.10
2013,05,22,20,55,10.10
2013,05,22,20,56,10.00
2013,05,22,20,57,10.00
2013,05,22,20,58,10.00
2013,05,22,20,59,10.00
2013,05,22,21,00,9.90
2013,05,22,21,01,9.90
2013,05,22,21,02,9.90
2013,05,22,21,03,9.90
2013,05,22,21,04,9.90
2013,05,22,21,05,9.90
2013,05,22,21,06,9.90
2013,05,22,21,07,9.90
2013,05,22,21,08,9.90
2013,05,22,21,09,9.80
2013,05,22,21,10,9.80
2013,05,22,21,11,9.80
2013,05,22,21,12,9.80
2013,05,22,21,13,9.80
2013,05,22,21,14,9.80
2013,05,22,21,15,9.80
2013,05,22,21,16,9.80
2013,05,22,21,17,9.80
2013,05,22,21,18,9.80
2013,05,22,21,19,9.80
2013,05,22,21,20,9.80
2013,05,22,21,21,9.80
2013,05,22,21,22,9.80
2013,05,22,21,23,9.80
2013,05,22,21,24,9.80
2013,05,22,21,25,9.80
2013,05,22,21,26,9.80
2013,05,22,21,27,9.80
2013,05,22,21,28,9.80
2013,05,22,21,29,9.80
2013,05,22,21,30,9.80
2013,05,22,21,31,9.80
2013,05,22,21,32,9.80
2013,05,22,21,33,9.70
2013,05,22,21,34,9.70
2013,05,22,21,35,9.70
2013,05,22,21,36,9.70
2013,05,22,21,37,9.70
2013,05,22,21,38,9.70
2013,05,22,21,39,9.70
2013,05,22,21,40,9.70
2013,05,22,21,41,9.70
2013,05,22,21,42,9.70
2013,05,22,21,43,9.70
2013,05,22,21,44,9.70
2013,05,22,21,45,9.70
2013,05,22,21,46,9.70
2013,05,22,21,47,9.70
2013,05,22,21,48,9.70
2013,05,22,21,49,9.70
2013,05,22,21,50,9.70
2013,05,22,21,51,9.70
2013,05,22,21,52,9.70
2013,05,22,21,53,9.70
2013,05,22,21,54,9.70
2013,05,22,21,55,9.70
2013,05,22,21,56,9.70
2013,05,22,21,57,9.70
2013,05,22,21,58,9.70
2013,05,22,21,59,9.60
2013,05,22,22,00,9.60
2013,05,22,22,01,9.60
2013,05,22,22,02,9.60
2013,05,22,22,03,9.60
2013,05,22,22,04,9.60
2013,05,22,22,05,9.60
2013,05,22,22,06,9.60
2013,05,22,22,07,9.60
2013,05,22,22,08,9.60
2013,05,22,22,09,9.60
2013,05,22,22,10,9.60
2013,05,22,22,11,9.60
2013,05,22,22,12,9.60
2013,05,22,22,13,9.50
2013,05,22,22,14,9.50
2013,05,22,22,15,9.50
2013,05,22,22,16,9.50
2013,05,22,22,17,9.50
2013,05,22,22,18,9.40
2013,05,22,22,19,9.40
2013,05,22,22,20,9.40
2013,05,22,22,21,9.40
2013,05,22,22,22,9.40
2013,05,22,22,23,9.40
2013,05,22,22,24,9.40
2013,05,22,22,25,9.40
2013,05,22,22,26,9.40
2013,05,22,22,27,9.40
2013,05,22,22,28,9.40
2013,05,22,22,29,9.30
2013,05,22,22,30,9.30
2013,05,22,22,31,9.30
2013,05,22,22,32,9.30
2013,05,22,22,33,9.30
2013,05,22,22,34,9.30
2013,05,22,22,35,9.30
2013,05,22,22,36,9.30
2013,05,22,22,37,9.20
2013,05,22,22,38,9.20
2013,05,22,22,39,9.20
2013,05,22,22,40,9.20
2013,05,22,22,41,9.20
2013,05,22,22,42,9.20
2013,05,22,22,43,9.10
2013,05,22,22,44,9.10
2013,05,22,22,45,9.10
2013,05,22,22,46,9.10
2013,05,22,22,47,9.10
2013,05,22,22,48,9.00
2013,05,22,22,49,9.00
2013,05,22,22,50,9.00
2013,05,22,22,51,9.00
2013,05,22,22,52,8.90
2013,05,22,22,53,8.90
2013,05,22,22,54,8.90
2013,05,22,22,55,8.90
2013,05,22,22,56,8.90
2013,05,22,22,57,8.90
2013,05,22,22,58,8.90
2013,05,22,22,59,8.90
2013,05,22,23,00,8.80
2013,05,22,23,01,8.80
2013,05,22,23,02,8.80
2013,05,22,23,03,8.80
2013,05,22,23,04,8.80
2013,05,22,23,05,8.80
2013,05,22,23,06,8.80
2013,05,22,23,07,8.80
2013,05,22,23,08,8.80
2013,05,22,23,09,8.80
2013,05,22,23,10,8.80
2013,05,22,23,11,8.80
2013,05,22,23,12,8.80
2013,05,22,23,13,8.80
2013,05,22,23,14,8.80
2013,05,22,23,15,8.80
2013,05,22,23,16,8.80
2013,05,22,23,17,8.80
2013,05,22,23,18,8.80
2013,05,22,23,19,8.80
2013,05,22,23,20,8.80
2013,05,22,23,21,8.80
2013,05,22,23,22,8.70
2013,05,22,23,23,8.70
2013,05,22,23,24,8.70
2013,05,22,23,25,8.70
2013,05,22,23,26,8.70
2013,05,22,23,27,8.70
2013,05,22,23,28,8.70
2013,05,22,23,29,8.70
2013,05,22,23,30,8.70
2013,05,22,23,31,8.70
2013,05,22,23,32,8.70
2013,05,22,23,33,8.70
2013,05,22,23,34,8.70
2013,05,22,23,35,8.70
2013,05,22,23,36,8.70
2013,05,22,23,37,8.70
2013,05,22,23,38,8.70
2013,05,22,23,39,8.70
2013,05,22,23,40,8.70
2013,05,22,23,41,8.70
2013,05,22,23,42,8.70
2013,05,22,23,43,8.70
2013,05,22,23,44,8.70
2013,05,22,23,45,8.70
2013,05,22,23,46,8.70
2013,05,22,23,47,8.70
2013,05,22,23,48,8.70
2013,05,22,23,49,8.70
2013,05,22,23,50,8.70
2013,05,22,23,51,8.70
2013,05,22,23,52,8.70
2013,05,22,23,53,8.80
2013,05,22,23,54,8.80
2013,05,22,23,55,8.70
2013,05,22,23,56,8.70
2013,05,22,23,57,8.70
2013,05,22,23,58,8.70
2013,05,22,23,59,8.70
